Location: Newark
(10.9667°N, 4.8167°W)
Time: 20:09:34
(UTC+00:00)

Hubble Space Telescope - Pass Details

Date: 14 December 2019
Orbit: 536 x 540 km, 28.5° (Epoch: 20 January)

Event Time Altitude Azimuth Distance (km) Brightness Sun altitude
Exits shadow 05:13:38 21° 350° (N) 1,231 2.3 -18.0°
Drops below altitude 10° 05:16:19 10° 30° (NNE) 1,782 3.5 -17.4°
Sets 05:18:59 0° 46° (NE) 2,673 4.7 -16.8°
